Regional Weather Roundup
Issued by NWS Little Rock, AR

Home | Current Version | Previous Version | Graphics & Text | Print | Product List | Glossary On
Versions: 1 2 3 4 5 6 7 8 9 10 11 12 13 14 15 16 17 18 19 20 21 22 23 24 25 26 27 28 29 30 31 32 33 34 35 36 37 38 39 40 41 42 43 44 45 46 47 48 49 50
000
ASUS44 KLZK 201605
RWRLZK

WEATHER ROUNDUP FOR ARKANSAS
NATIONAL WEATHER SERVICE LITTLE ROCK AR
1100 AM CDT SAT SEP 20 2014

NOTE: "FAIR" INDICATES FEW OR NO CLOUDS BELOW 12,000 FEET WITH NO
SIGNIFICANT WEATHER AND/OR OBSTRUCTIONS TO VISIBILITY.

ARZ001-003-010-029-201700-
NORTHWEST ARKANSAS

CITY           SKY/WX    TMP DP  RH WIND       PRES   REMARKS
FAYETTEVILLE   MOSUNNY   79  69  71 S12       30.11R
FORT SMITH     SUNNY     80  70  71 NE7       30.07S
HARRISON       MOSUNNY   80  71  74 S7        30.12R
BENTONVILLE    MOSUNNY   79  68  69 SW8       30.12R
ROGERS         PTSUNNY   79  69  71 SW12      30.12R
SILOAM SPGS    PTSUNNY   79  68  69 SW12      30.11S
HIGHFILL       MOSUNNY   79  70  74 SW9       30.10R
SPRINGDALE     PTSUNNY   79  70  73 SW12      30.13R
$$

ARZ004-005-016-201700-
NORTH CENTRAL ARKANSAS

CITY           SKY/WX    TMP DP  RH WIND       PRES   REMARKS
BATESVILLE     SUNNY     82  68  61 W3        30.09S HX  85
FLIPPIN        MOSUNNY   79  66  65 SE5       30.10S
MTN HOME       PTSUNNY   78  68  71 S8        30.10R
$$

ARZ040-041-201700-
WEST CENTRAL ARKANSAS

CITY           SKY/WX    TMP DP  RH WIND       PRES   REMARKS
MENA           MOSUNNY   79  72  78 CALM      30.10S
MOUNT IDA      SUNNY     76  71  85 CALM      30.07S
$$

ARZ009-017-025-026-028-201700-
NORTHEAST ARKANSAS

CITY           SKY/WX    TMP DP  RH WIND       PRES   REMARKS
CORNING          N/A     81  72  74 SW8       30.09S
JONESBORO      SUNNY     83  69  62 CALM      30.09S HX  86
NEWPORT        SUNNY     85  69  58 SW5       30.10S HX  89
WALNUT RIDGE   SUNNY     81  66  61 SW7       30.08S
BLYTHEVILLE    SUNNY     82  70  66 S9        30.09S HX  86
$$

ARZ022-023-033-042-044-201700-
CENTRAL ARKANSAS

CITY           SKY/WX    TMP DP  RH WIND       PRES   REMARKS
LITTLE ROCK    MOSUNNY   84  66  54 CALM      30.08R HX  86
N LITTLE ROCK  MOSUNNY   84  68  59 SE5       30.08R HX  87
JACKSONVILLE   SUNNY     84  67  57 SW6       30.08R HX  86
SEARCY         SUNNY     85  69  58 S6        30.09S HX  89
HOT SPRINGS    SUNNY     82  68  62 CALM      30.08S HX  85
RUSSELLVILLE   SUNNY     82  69  64 CALM      30.08S HX  85
CLINTON        FAIR      81  72  74 CALM      30.10S
$$

ARZ036-201700-
EAST ARKANSAS

CITY           SKY/WX    TMP DP  RH WIND       PRES   REMARKS
WEST MEMPHIS   SUNNY     82  70  66 S9        30.08S HX  86
$$

ARZ050-053-066-070-073-201700-
SOUTHWEST ARKANSAS

CITY           SKY/WX    TMP DP  RH WIND       PRES   REMARKS
ARKADELPHIA    FAIR      82  71  69 CALM      30.07S HX  86
CAMDEN         SUNNY     86  68  54 CALM      30.06S HX  89
TEXARKANA      SUNNY     84  71  65 CALM      30.06S HX  89
EL DORADO      SUNNY     85  69  58 CALM      30.06S HX  89
DE QUEEN       SUNNY     82  72  71 CALM      30.05R HX  87
$$

ARZ056-057-069-201700-
SOUTHEAST ARKANSAS

CITY           SKY/WX    TMP DP  RH WIND       PRES   REMARKS
PINE BLUFF     SUNNY     83  69  62 CALM      30.07S HX  86
STUTTGART      SUNNY     82  70  65 CALM      30.09R HX  86
MONTICELLO     SUNNY     85  69  58 CALM      30.06S HX  89

$$




USA.gov is the U.S. government's official web portal to all federal, state and local government web resources and services.